User: anonymous   Login
Location: Eaton Estates
(41.3089°N, 82.0057°W)
Time: 18:37:31
(UTC+00:00)
Language:

Cosmos 2154 Rocket - Orbit

View from above orbital plane
View from above orbital plane
View from above satellite
View from above satellite

Ground track
Ground track

The orbit data is extracted from the following two-line orbital elements,

1 21667U 91059B   22015.95323344  .00000191  00000-0  18415-3 0  9992
2 21667  82.9050 202.6718 0019664 268.2029 256.7989 13.75112364525459
Epoch (UTC): 15 January 2022 22:52:39
Eccentricity: 0.0019664
inclination: 82.9050°
perigee height: 967 km
apogee height: 996 km
right ascension of ascending node: 202.6718°
argument of perigee: 268.2029°
revolutions per day: 13.75112364
mean anomaly at epoch: 256.7989°
orbit number at epoch: 52545

The dashed part of the orbit path shows where the satellite is in the earth's shadow,  

DLR